Wind_Speed
23 24 24 24 24 24 23 21 21 21 21 20 19 17 15 14 12 11 9 8 8 6 6 5 4 3 2 1 0 1 2 3 3 4 5 6 7 8 9 10 11 12 13 14
23 24 24 24 24 24 23 22 21 21 20 20 18 17 16 14 13 11 10 9 8 8 7 6 5 4 3 2 0 1 1 2 3 4 5 6 7 7 8 9 10 12 13 13
23 24 24 23 23 24 23 22 20 20 20 20 19 18 17 15 13 11 11 11 9 9 8 7 6 5 4 3 2 1 1 2 2 3 4 5 6 7 7 8 9 11 12 13
23 23 23 22 22 22 21 20 19 19 19 20 20 18 17 15 13 12 11 11 10 9 9 8 7 7 6 4 3 2 2 2 2 2 3 4 5 6 7 8 9 10 11 12
21 22 22 22 22 22 21 20 19 20 20 19 19 18 17 16 14 12 11 10 10 9 8 8 9 8 7 5 4 4 3 2 2 3 3 4 5 5 6 7 8 9 10 11
18 20 21 22 21 20 20 20 20 20 20 20 20 19 17 16 15 13 12 11 10 9 9 9 9 9 7 6 5 5 4 3 3 3 2 3 4 5 6 6 7 9 10 11
17 18 19 21 20 19 20 20 20 21 21 21 19 18 17 16 15 14 13 12 11 10 10 10 9 9 8 7 6 6 5 4 3 3 2 2 3 4 5 6 7 8 9 11
15 17 18 19 19 18 19 20 21 21 21 19 18 18 17 16 14 14 13 12 11 11 11 10 10 9 9 8 7 7 5 5 4 3 2 1 2 3 4 5 6 7 8 10
14 15 16 17 17 17 19 20 20 21 19 18 17 17 16 15 14 14 13 12 12 12 12 11 11 10 10 9 8 7 6 5 4 3 2 1 1 2 3 4 5 7 8 9
13 14 15 15 16 17 18 19 20 20 19 18 17 16 16 15 14 14 14 13 12 13 13 12 12 12 11 10 9 8 7 6 5 4 3 1 1 2 2 3 5 6 7 8
12 13 14 15 16 16 17 18 19 19 18 18 16 16 15 15 14 14 14 14 13 13 14 13 13 13 12 11 10 9 8 7 6 5 4 3 2 2 3 4 5 6 7 8
12 12 13 15 16 16 17 18 19 19 17 17 16 16 15 15 15 15 15 14 14 14 14 14 14 13 13 12 11 10 9 8 8 7 6 5 4 4 4 5 6 7 7 8
11 11 12 14 15 16 17 17 17 17 17 16 17 16 16 16 16 16 16 16 15 16 16 15 14 14 13 13 12 11 11 10 9 8 8 7 6 6 6 7 7 8 9 9
10 10 12 13 15 15 16 16 17 17 17 15 14 15 16 16 16 16 16 16 15 16 16 15 15 15 14 13 13 12 12 11 11 10 9 9 8 8 8 9 9 10 11 12
9 9 11 13 14 15 16 16 17 17 16 15 14 15 16 16 17 16 17 17 16 16 16 15 15 15 15 15 14 13 13 12 12 11 11 11 10 10 10 11 11 12 13 13
9 9 10 12 13 14 15 16 17 17 16 16 16 16 17 17 17 17 17 18 17 17 16 16 16 16 16 16 15 15 14 14 14 13 13 13 12 12 12 13 13 14 15 15
10 10 10 11 12 13 14 14 15 16 15 16 16 17 18 18 18 17 18 18 17 17 17 17 17 17 16 16 16 16 16 16 15 15 15 14 14 14 15 15 16 16 17 18
12 12 12 12 13 13 13 14 15 15 15 16 16 17 19 18 18 18 19 18 18 18 18 18 17 17 17 17 17 17 17 17 17 17 16 16 16 16 17 18 18 19 19 20
14 14 14 14 14 13 13 13 15 15 15 16 17 18 19 19 19 19 19 19 19 19 19 19 18 18 18 18 18 18 18 18 18 19 18 18 19 19 20 20 20 21 22 22
16 16 16 16 15 14 14 15 15 15 15 17 18 19 19 19 19 19 20 20 20 19 19 20 20 20 20 20 19 19 20 20 20 20 20 20 21 21 22 23 23 24 24 25
18 18 18 17 17 15 15 16 17 16 16 18 19 19 19 19 19 20 21 21 20 20 20 20 20 20 21 20 20 20 21 21 21 21 22 23 23 23 24 25 26 26 27 27
19 20 19 19 19 17 17 17 18 17 18 18 18 18 19 19 20 20 20 20 20 20 21 21 21 22 22 22 22 22 22 22 23 23 23 24 25 26 26 27 28 29 29 30
22 21 21 21 20 20 20 20 19 19 19 19 20 20 20 20 20 21 21 21 21 22 22 22 23 23 23 23 23 23 24 24 24 25 26 26 27 28 29 29 30 30 31 32
24 24 24 23 22 21 22 22 22 21 21 21 21 21 21 22 22 22 23 23 23 23 23 23 23 24 24 25 25 26 26 26 26 27 28 28 29 30 31 31 32 33 34 34
26 25 25 25 24 24 24 24 24 24 23 24 24 23 23 23 24 24 24 25 25 25 25 25 26 26 27 27 28 28 28 28 28 29 30 31 32 32 33 34 35 35 36 37
27 27 27 27 27 28 27 26 26 26 26 26 26 25 25 25 26 26 26 27 27 27 27 27 27 28 29 29 29 29 29 30 31 31 32 33 34 35 36 37 38 38 40 40
Wind_Direction
200 199 201 201 200 201 201 202 202 200 196 197 197 199 200 201 204 207 209 213 212 213 212 209 208 211 205 196 40 30 26 26 26 25 28 31 31 36 39 35 35 35 34 34
198 198 198 200 202 203 203 203 201 200 198 197 196 199 200 202 206 208 207 209 211 213 212 215 215 211 204 201 179 48 44 47 38 36 37 36 39 43 42 38 37 36 35 34
198 198 199 200 201 202 204 205 203 202 197 195 195 197 201 203 208 207 208 210 214 215 216 218 218 209 207 207 196 164 113 79 56 52 48 45 45 44 42 40 38 35 33 32
198 197 198 200 201 200 201 203 201 200 200 199 200 204 205 204 206 210 212 212 216 220 219 216 210 204 203 199 189 180 153 109 87 85 68 55 48 47 45 41 37 34 32 32
197 195 196 198 199 200 199 200 201 200 200 203 204 206 206 209 213 218 220 220 219 220 216 210 204 199 199 198 191 183 164 143 123 114 92 70 57 52 48 43 38 34 32 31
193 196 197 199 199 198 197 197 201 203 204 206 206 207 210 213 216 217 218 219 218 218 213 206 203 198 198 196 189 181 173 162 147 134 110 81 59 50 43 39 34 31 29 27
192 196 199 200 197 195 196 197 202 202 204 206 208 214 213 213 215 215 215 216 216 215 209 205 204 202 201 198 189 181 176 169 159 152 132 92 59 41 34 31 28 25 24 22
191 194 195 199 198 198 197 199 203 203 207 211 214 217 213 211 214 212 212 214 214 211 207 205 207 206 202 200 192 185 184 180 174 167 153 111 50 29 27 24 21 19 17 17
187 191 195 199 203 205 205 203 204 205 209 214 216 218 217 215 214 212 211 212 212 210 209 208 208 205 203 201 197 193 195 194 189 183 174 149 46 14 15 15 11 10 11 10
190 192 197 200 203 205 205 203 200 202 209 212 215 217 216 217 217 215 209 209 211 210 210 213 212 210 209 206 203 201 201 201 202 201 200 206 296 334 346 350 352 355 358 1
193 194 196 197 200 204 203 202 202 206 209 210 211 213 212 215 217 215 211 208 208 210 211 213 214 213 212 210 210 209 210 210 214 217 224 236 271 300 313 323 332 342 348 352
192 190 193 198 202 204 204 202 203 207 210 211 210 212 214 218 216 212 210 209 208 210 210 213 217 215 213 214 215 217 218 221 224 228 234 243 263 284 300 309 318 327 333 339
195 195 199 202 205 206 206 206 207 210 212 211 212 214 216 219 216 213 212 212 212 212 212 215 218 217 218 220 221 223 227 228 230 234 240 248 263 279 291 299 308 316 322 327
198 199 202 203 207 206 207 209 211 212 212 213 215 218 220 220 220 218 217 217 218 218 217 219 220 222 224 226 227 230 233 235 236 240 246 253 263 275 286 292 300 307 312 316
203 202 203 205 206 208 211 212 213 213 210 212 215 218 219 221 223 223 221 222 223 224 223 224 225 227 230 232 233 235 238 240 242 246 251 257 265 274 282 288 295 302 307 308
205 211 212 211 212 213 214 215 217 216 216 216 216 216 220 221 223 224 226 227 227 226 227 228 230 231 234 236 237 239 242 244 247 251 255 260 266 274 281 287 292 298 302 304
214 214 216 219 220 219 219 221 222 221 221 221 221 219 222 224 226 227 228 227 228 229 231 233 233 234 236 238 240 242 245 247 250 254 258 262 269 276 283 287 290 294 298 301
225 223 220 221 222 221 218 223 225 225 224 223 222 225 228 230 232 232 231 230 231 232 234 236 237 239 240 242 244 246 248 250 253 257 260 266 272 279 283 286 289 293 295 298
229 230 228 228 231 229 228 228 230 230 229 229 229 231 233 234 237 236 235 232 231 233 237 239 239 241 243 246 248 249 251 253 256 259 263 268 273 278 283 285 287 291 294 296
233 233 234 234 237 235 233 235 236 237 235 234 235 235 236 238 240 237 236 235 235 237 241 243 242 244 247 250 251 252 253 256 258 261 265 270 275 278 282 284 286 290 293 295
237 237 238 238 238 237 238 239 240 242 238 236 237 240 241 241 242 238 238 238 239 241 246 247 246 248 250 252 253 253 254 257 260 264 269 273 277 280 282 284 286 289 292 294
239 240 240 241 242 240 240 242 242 242 241 243 242 243 244 245 244 242 242 243 245 247 249 249 249 250 251 252 253 253 255 259 264 268 272 275 278 280 282 284 286 289 291 293
241 242 243 243 244 243 242 243 246 245 247 248 248 247 247 247 247 246 246 247 249 251 251 251 251 252 252 254 255 256 259 263 267 270 273 275 278 280 282 284 286 288 290 292
242 243 244 245 246 246 246 247 247 247 247 247 248 249 248 248 249 249 248 249 251 252 252 253 254 254 255 256 257 259 262 266 269 271 274 276 279 281 283 285 287 289 290 291
242 244 246 247 247 248 248 249 249 250 250 249 249 250 250 250 250 251 252 252 253 253 254 255 256 256 258 259 260 263 265 268 270 272 275 278 280 282 284 286 287 289 290 291
245 247 247 248 248 248 249 249 251 252 252 252 252 251 251 251 251 253 253 254 255 256 256 257 258 259 260 261 263 265 267 269 271 274 276 279 281 283 284 286 287 289 290 291
Height
5830 5836 5839 5844 5848 5852 5856 5859 5862 5865 5868 5871 5873 5876 5878 5881 5883 5885 5886 5888 5889 5891 5892 5893 5894 5894 5895 5895 5895 5896 5895 5895 5895 5894 5893 5892 5890 5889 5887 5885 5883 5881 5879 5876
5829 5833 5837 5841 5846 5850 5853 5857 5860 5863 5866 5869 5872 5875 5877 5879 5882 5884 5885 5887 5888 5890 5891 5892 5893 5894 5894 5895 5895 5895 5895 5895 5895 5894 5893 5892 5891 5889 5888 5886 5884 5882 5880 5878
5827 5832 5835 5840 5844 5848 5851 5855 5858 5861 5864 5868 5871 5874 5876 5878 5880 5882 5884 5886 5887 5889 5890 5891 5892 5893 5894 5894 5895 5895 5895 5895 5894 5894 5893 5892 5891 5890 5889 5887 5886 5884 5881 5879
5825 5829 5834 5838 5842 5845 5849 5852 5856 5859 5863 5866 5870 5873 5875 5877 5879 5881 5883 5884 5886 5887 5889 5890 5891 5892 5893 5894 5894 5895 5895 5895 5894 5894 5894 5893 5892 5891 5890 5888 5886 5885 5883 5880
5825 5828 5832 5836 5840 5843 5847 5850 5854 5858 5861 5865 5868 5871 5874 5875 5877 5880 5882 5883 5885 5886 5887 5889 5890 5891 5892 5893 5894 5894 5895 5895 5894 5894 5894 5893 5893 5892 5890 5889 5887 5886 5884 5881
5824 5828 5831 5834 5838 5842 5845 5850 5853 5856 5859 5863 5866 5869 5872 5873 5876 5878 5880 5882 5883 5885 5886 5887 5889 5890 5891 5892 5893 5893 5894 5894 5894 5894 5894 5893 5893 5892 5891 5889 5888 5886 5884 5882
5824 5827 5830 5834 5837 5840 5845 5849 5852 5854 5857 5861 5863 5866 5870 5872 5874 5876 5878 5880 5881 5883 5884 5886 5888 5889 5890 5891 5892 5893 5893 5894 5894 5894 5894 5893 5893 5892 5891 5889 5888 5887 5885 5883
5824 5827 5830 5833 5836 5839 5843 5847 5851 5854 5857 5859 5861 5864 5868 5870 5872 5874 5876 5878 5879 5881 5883 5884 5886 5888 5889 5890 5891 5892 5893 5893 5894 5893 5893 5893 5892 5892 5891 5889 5888 5887 5885 5883
5824 5827 5829 5832 5835 5838 5840 5844 5848 5852 5855 5858 5860 5863 5866 5867 5870 5872 5874 5876 5877 5879 5881 5883 5884 5886 5888 5889 5890 5891 5892 5892 5893 5893 5893 5892 5892 5891 5890 5889 5888 5887 5885 5883
5823 5826 5828 5831 5833 5836 5839 5842 5846 5849 5852 5855 5858 5861 5864 5865 5867 5870 5872 5874 5876 5877 5879 5881 5883 5884 5886 5887 5889 5890 5891 5891 5892 5892 5892 5891 5891 5891 5890 5889 5888 5886 5885 5883
5823 5825 5828 5830 5832 5835 5838 5841 5844 5847 5850 5854 5856 5861 5861 5863 5865 5867 5869 5871 5873 5875 5877 5879 5881 5882 5884 5885 5887 5888 5889 5890 5890 5890 5891 5890 5890 5890 5889 5888 5887 5886 5884 5882
5822 5824 5826 5829 5831 5833 5836 5839 5842 5846 5848 5851 5854 5860 5858 5860 5862 5864 5867 5869 5871 5873 5875 5877 5878 5880 5882 5883 5885 5886 5887 5888 5888 5889 5889 5889 5889 5888 5888 5887 5886 5885 5883 5881
5821 5824 5826 5828 5831 5832 5834 5837 5840 5843 5846 5848 5852 5857 5856 5858 5859 5862 5864 5866 5868 5870 5873 5874 5876 5878 5879 5881 5882 5884 5885 5886 5886 5887 5887 5887 5887 5886 5886 5885 5884 5883 5882 5880
5820 5823 5825 5827 5828 5830 5833 5835 5838 5841 5843 5846 5849 5852 5853 5855 5857 5859 5861 5863 5866 5868 5870 5871 5873 5875 5877 5878 5880 5881 5882 5883 5883 5884 5884 5884 5884 5884 5883 5883 5882 5881 5879 5878
5819 5821 5823 5824 5826 5829 5831 5833 5835 5838 5841 5844 5846 5848 5850 5852 5854 5856 5858 5861 5863 5865 5867 5869 5870 5872 5874 5875 5876 5878 5879 5880 5880 5881 5881 5881 5881 5881 5881 5880 5879 5878 5877 5875
5818 5820 5821 5823 5825 5827 5829 5831 5833 5835 5838 5840 5842 5845 5847 5848 5850 5853 5855 5857 5859 5861 5863 5865 5867 5869 5870 5872 5873 5874 5875 5876 5877 5877 5878 5878 5878 5878 5877 5876 5876 5874 5873 5872
5817 5819 5821 5822 5823 5825 5828 5830 5831 5833 5835 5837 5840 5842 5843 5845 5847 5849 5851 5854 5856 5858 5860 5861 5863 5865 5866 5868 5869 5870 5871 5872 5873 5873 5874 5874 5874 5874 5873 5872 5871 5870 5869 5867
5815 5816 5818 5820 5823 5824 5828 5827 5829 5830 5832 5834 5836 5837 5839 5841 5843 5845 5848 5850 5852 5854 5855 5857 5859 5861 5862 5863 5865 5866 5867 5868 5868 5869 5869 5869 5869 5869 5868 5867 5866 5865 5864 5862
5813 5814 5816 5818 5820 5822 5824 5825 5826 5827 5829 5831 5832 5834 5835 5837 5839 5842 5844 5846 5848 5849 5851 5853 5855 5856 5858 5859 5860 5861 5862 5863 5863 5864 5864 5864 5864 5864 5863 5862 5861 5860 5858 5857
5810 5811 5814 5815 5817 5819 5822 5822 5822 5825 5826 5827 5828 5830 5831 5833 5836 5839 5840 5841 5843 5845 5847 5848 5850 5851 5853 5854 5855 5856 5857 5858 5858 5858 5859 5859 5858 5858 5857 5856 5855 5853 5852 5850
5806 5807 5809 5811 5813 5815 5817 5817 5819 5822 5823 5823 5824 5826 5828 5830 5832 5834 5835 5836 5838 5840 5842 5843 5845 5846 5847 5848 5849 5850 5851 5852 5852 5852 5852 5852 5852 5851 5850 5849 5848 5846 5845 5843
5801 5803 5805 5807 5809 5813 5812 5813 5815 5817 5817 5818 5820 5821 5823 5825 5826 5828 5830 5831 5833 5835 5836 5837 5839 5840 5841 5842 5843 5844 5845 5845 5845 5846 5846 5845 5845 5844 5843 5842 5840 5839 5837 5835
5796 5799 5800 5803 5806 5806 5807 5808 5810 5811 5813 5814 5815 5817 5818 5820 5821 5823 5824 5826 5828 5829 5830 5832 5833 5834 5835 5836 5837 5838 5838 5838 5839 5839 5838 5838 5837 5836 5835 5834 5832 5830 5828 5826
5790 5792 5794 5796 5798 5800 5801 5802 5804 5805 5807 5808 5810 5811 5813 5814 5816 5817 5819 5820 5822 5823 5824 5825 5827 5828 5828 5829 5830 5831 5831 5831 5831 5831 5831 5830 5829 5828 5827 5825 5823 5821 5819 5816
5783 5786 5787 5789 5792 5793 5795 5796 5797 5799 5801 5802 5804 5805 5807 5808 5810 5811 5812 5814 5815 5816 5818 5819 5820 5821 5821 5822 5823 5823 5823 5823 5823 5823 5822 5821 5820 5819 5818 5816 5814 5812 5809 5806
5777 5779 5780 5782 5784 5785 5787 5789 5791 5792 5794 5795 5797 5798 5800 5801 5803 5804 5805 5807 5808 5809 5810 5811 5812 5813 5814 5814 5814 5815 5815 5815 5814 5814 5813 5812 5811 5809 5808 5806 5804 5801 5798 5795